Imperial, NE

12:40 AM MDT on April 27, 2017 (GMT -0600)
Imperial Municipal

Weather History for KIML - September, 2013

Change the Weather History Date:

Wednesday, September 11, 2013

  Actual Average Record
Temperature  
Mean Temperature 70 °F 67 °F  
Max Temperature 79 °F 81 °F 98 °F (1931)
Min Temperature 61 °F 52 °F 34 °F (1898)
Degree Days  
Heating Degree Days 0 2  
Month to date heating degree days 0 17  
Cooling Degree Days 5 4  
Month to date cooling degree days 152 54  
Year to date cooling degree days 1125 920  
Growing Degree Days 20 (Base 50)    
Moisture  
Dew Point 62 °F    
Average Humidity 77    
Maximum Humidity 97    
Minimum Humidity 56    
Precipitation  
Precipitation 0.17 in 0.04 in 3.32 in (1898)
Sea Level Pressure  
Sea Level Pressure 30.14 in    
Wind  
Wind Speed 6 mph (ENE)    
Max Wind Speed 17 mph    
Max Gust Speed 24 mph    
Visibility 9 miles    
Events Rain , Thunderstorm    
T = Trace of Precipitation, MM = Missing Value Source: NWS Daily Summary

Daily Weather History Graph

Daily Weather History Graph

Search for Another Location

Airport or City:

Trip Planner

Search our weather history database for the weather conditions in past years. The results will help you decide how hot, cold, wet, or windy it might be!

Date:

Astronomy

Sep. 11, 2013 Rise Set
Actual Time 6:23 AM MDT 7:01 PM MDT
Civil Twilight 5:56 AM MDT 7:29 PM MDT
Nautical Twilight 5:23 AM MDT 8:01 PM MDT
Astronomical Twilight 4:50 AM MDT 8:34 PM MDT
Moon 12:55 PM MDT (9/11) 10:58 PM MDT (9/11)
Length of Visible Light 13h 32m
Length of Day
12h 37m
Waxing Crescent, 39% of the Moon is Illuminated
Sep 11
Waxing Crescent
Sep 12
First Quarter
Sep 19
Full
Sep 26
Last Quarter
Oct 4
New

Hourly Weather History & Observations

Time (MDT) Temp. Dew Point Humidity Pressure Visibility Wind Dir Wind Speed Gust Speed Precip Events Conditions
12:53 AM 64.9 °F 57.9 °F 78% 30.05 in 10.0 mi NE 5.8 mph - N/A   Clear
1:53 AM 64.9 °F 59.0 °F 81% 30.05 in 10.0 mi NE 5.8 mph - N/A   Clear
2:53 AM 64.0 °F 59.0 °F 84% 30.06 in 10.0 mi NE 4.6 mph - N/A   Clear
3:53 AM 63.0 °F 59.0 °F 87% 30.07 in 10.0 mi NNE 5.8 mph - N/A   Partly Cloudy
4:53 AM 62.1 °F 59.0 °F 90% 30.07 in 10.0 mi NE 5.8 mph - N/A   Clear
5:53 AM 61.0 °F 59.0 °F 93% 30.09 in 10.0 mi NE 5.8 mph - N/A   Mostly Cloudy
6:53 AM 62.1 °F 59.0 °F 90% 30.10 in 10.0 mi NNE 5.8 mph - N/A   Partly Cloudy
7:53 AM 64.0 °F 60.1 °F 87% 30.12 in 10.0 mi ENE 5.8 mph - N/A   Mostly Cloudy
8:05 AM 64.4 °F 60.8 °F 88% 30.19 in 10.0 mi ENE 4.6 mph - N/A   Mostly Cloudy
8:53 AM 66.9 °F 61.0 °F 81% 30.12 in 10.0 mi East 6.9 mph - N/A   Overcast
9:53 AM 71.1 °F 62.1 °F 73% 30.13 in 10.0 mi Calm Calm - N/A   Overcast
10:17 AM 71.6 °F 62.6 °F 73% 30.21 in 10.0 mi Calm Calm - N/A   Overcast
10:53 AM 75.0 °F 62.1 °F 64% 30.12 in 10.0 mi East 8.1 mph - N/A   Mostly Cloudy
11:04 AM 73.4 °F 62.6 °F 69% 30.20 in 10.0 mi NNE 5.8 mph - N/A   Mostly Cloudy
11:53 AM 73.9 °F 62.1 °F 66% 30.13 in 10.0 mi East 5.8 mph - N/A   Mostly Cloudy
12:53 PM 78.1 °F 62.1 °F 58% 30.11 in 10.0 mi East 6.9 mph - N/A   Clear
1:53 PM 78.1 °F 62.1 °F 58% 30.10 in 10.0 mi East 6.9 mph - N/A   Scattered Clouds
2:53 PM 77.0 °F 62.1 °F 60% 30.09 in 10.0 mi NE 13.8 mph 20.7 mph N/A   Scattered Clouds
3:53 PM 77.0 °F 61.0 °F 58% 30.10 in 10.0 mi NE 10.4 mph - N/A   Mostly Cloudy
4:53 PM 75.9 °F 61.0 °F 60% 30.10 in 10.0 mi ENE 10.4 mph - N/A   Clear
5:19 PM 75.2 °F 60.8 °F 61% 30.19 in 10.0 mi East 10.4 mph - N/A Thunderstorm Mostly Cloudy
5:45 PM 66.2 °F 62.6 °F 88% 30.20 in 10.0 mi South 8.1 mph - N/A   Overcast
5:53 PM 66.9 °F 63.0 °F 87% 30.15 in 7.0 mi South 4.6 mph - 0.01 in Rain Light Rain
6:05 PM 66.2 °F 64.4 °F 94% 30.20 in 10.0 mi South 5.8 mph - 0.00 in Rain Light Rain
6:32 PM 64.4 °F 64.4 °F 100% 30.21 in 2.5 mi South 4.6 mph - 0.06 in Rain Rain
6:41 PM 64.4 °F 64.4 °F 100% 30.20 in 4.0 mi SSW 3.5 mph - 0.07 in Rain Light Rain
6:53 PM 64.9 °F 63.0 °F 93% 30.16 in 7.0 mi Calm Calm - 0.09 in Rain Light Rain
7:53 PM 64.9 °F 63.0 °F 93% 30.16 in 10.0 mi SE 3.5 mph - 0.04 in Rain Light Rain
8:53 PM 64.9 °F 64.0 °F 97% 30.16 in 10.0 mi NE 3.5 mph - 0.01 in Rain Light Rain
9:53 PM 64.9 °F 63.0 °F 93% 30.17 in 10.0 mi East 4.6 mph - 0.02 in   Scattered Clouds
10:53 PM 64.9 °F 64.0 °F 97% 30.16 in 10.0 mi NNE 3.5 mph - 0.00 in Rain Light Rain
11:28 PM 64.4 °F 62.6 °F 94% 30.24 in 10.0 mi East 3.5 mph - 0.00 in   Mostly Cloudy
11:40 PM 64.4 °F 62.6 °F 94% 30.23 in 10.0 mi East 4.6 mph - 0.00 in   Mostly Cloudy
11:53 PM 64.9 °F 63.0 °F 93% 30.16 in 10.0 mi ENE 3.5 mph - 0.00 in   Mostly Cloudy